Regional Weather Roundup
Issued by NWS

Home | Current Version | Previous Version | Graphics & Text | Print | Product List | Glossary Off
Versions: 1 2 3 4 5 6 7 8 9 10 11 12 13 14 15 16 17 18 19 20 21 22 23 24 25 26 27 28 29 30 31 32 33 34 35 36 37 38 39 40 41 42 43 44 45 46 47 48 49 50

000
ASUS43 KBIS 230020
RWRND

NORTH DAKOTA REGIONAL WEATHER ROUNDUP
NATIONAL WEATHER SERVICE BISMARCK ND
600 PM CST MON DEC 22 2014

NOTE: "FAIR" INDICATES FEW OR NO CLOUDS BELOW 12,000 FEET WITH NO
SIGNIFICANT WEATHER AND/OR OBSTRUCTIONS TO VISIBILITY.


NDZ001>003-009>011-017-230100-
NORTHWEST NORTH DAKOTA

CITY           SKY/WX    TMP DP  RH WIND       PRES   REMARKS
WILLISTON      CLOUDY    27  22  81 N16       29.78R WCI  15
6HR MIN TEMP:  26; 6HR MAX TEMP:  28;

MINOT          CLOUDY    29  26  89 NW15      29.70R WCI  18
MINOT AFB      FRZ RAIN  28  28 100 N14       29.71R WCI  17
$$

NDZ018>021-031>035-040>046-230100-
SOUTHWEST NORTH DAKOTA

CITY           SKY/WX    TMP DP  RH WIND       PRES   REMARKS
BISMARCK       CLOUDY    31  30  96 N21G28    29.64R WCI  18
6HR MIN TEMP:  29; 6HR MAX TEMP:  32;

DICKINSON      LGT SNOW  25  21  85 NW17      29.68R FOG     WCI  12
GARRISON         N/A     27  26  96 N15       29.68R WCI  15
6HR MIN TEMP:  27; 6HR MAX TEMP:  30;

HETTINGER ARPT LGT SNOW  24  20  84 NW16G31   29.67R FOG     WCI  11
$$

NDZ004>008-012>016-024-026-027-054-230100-
NORTHEAST NORTH DAKOTA

CITY           SKY/WX    TMP DP  RH WIND       PRES   REMARKS
GRAND FORKS    LGT RAIN  36  35  96 NE7       29.64R
GRND FRKS AFB  LGT RAIN  36  36 100 NE7       29.65R
DEVILS LAKE    CLOUDY    34  32  93 NE13      29.64R
$$

NDZ022-023-025-028>030-036>039-047>053-230100-
SOUTHEAST NORTH DAKOTA

CITY           SKY/WX    TMP DP  RH WIND       PRES   REMARKS
FARGO          LGT RAIN  38  35  89 E12       29.59R
6HR MIN TEMP:  38; 6HR MAX TEMP:  41; 6HR PCP:  0.02;

JAMESTOWN      LGT RAIN  34  33  96 NE10      29.56R FOG
$$



USA.gov is the U.S. government's official web portal to all federal, state and local government web resources and services.